Precipitable_Water
0.16 0.09 0.08 0.07 0.08 0.10 0.11 0.12 0.11 0.12 0.13 0.13 0.13 0.11 0.10 0.10 0.10 0.11 0.12 0.15 0.17 0.12 0.09 0.09 0.10 0.09 0.09 0.09 0.10 0.11 0.13 0.12 0.11 0.10 0.10 0.11 0.11 0.12 0.13 0.14 0.15 0.16 0.15 0.18 0.23 0.26 0.29 0.34 0.38 0.41 0.43 0.43 0.45 0.46 0.48 0.49 0.49 0.49 0.48 0.49 0.48 0.49 0.50 0.49 0.48 0.47 0.45 0.42 0.41 0.40 0.38 0.33 0.33 0.33 0.33 0.33 0.33 0.32 0.31 0.29 0.27 0.25 0.23 0.22 0.21 0.20
0.14 0.08 0.07 0.09 0.11 0.12 0.12 0.14 0.13 0.13 0.14 0.13 0.12 0.11 0.10 0.11 0.08 0.10 0.10 0.13 0.16 0.10 0.08 0.10 0.09 0.08 0.08 0.08 0.08 0.09 0.09 0.08 0.09 0.09 0.10 0.10 0.11 0.12 0.12 0.13 0.14 0.15 0.18 0.21 0.22 0.24 0.27 0.31 0.35 0.39 0.40 0.41 0.40 0.41 0.44 0.45 0.45 0.46 0.47 0.47 0.47 0.48 0.48 0.48 0.47 0.46 0.45 0.44 0.41 0.38 0.35 0.34 0.33 0.33 0.32 0.31 0.31 0.31 0.30 0.29 0.27 0.25 0.24 0.23 0.21 0.20
0.08 0.07 0.06 0.11 0.13 0.14 0.14 0.14 0.14 0.13 0.12 0.13 0.11 0.11 0.10 0.08 0.10 0.10 0.09 0.11 0.13 0.11 0.08 0.09 0.07 0.07 0.07 0.07 0.07 0.07 0.07 0.08 0.08 0.09 0.09 0.09 0.10 0.11 0.12 0.12 0.13 0.15 0.15 0.18 0.20 0.23 0.24 0.27 0.32 0.36 0.38 0.39 0.39 0.40 0.40 0.41 0.43 0.44 0.45 0.45 0.46 0.46 0.46 0.46 0.46 0.46 0.44 0.45 0.45 0.43 0.39 0.37 0.35 0.37 0.37 0.36 0.34 0.33 0.30 0.29 0.27 0.26 0.24 0.23 0.22 0.21
0.06 0.06 0.08 0.11 0.13 0.12 0.12 0.13 0.13 0.13 0.13 0.11 0.10 0.09 0.06 0.07 0.06 0.05 0.06 0.09 0.12 0.11 0.08 0.08 0.07 0.06 0.07 0.07 0.08 0.08 0.07 0.08 0.08 0.09 0.09 0.10 0.10 0.10 0.10 0.11 0.12 0.13 0.14 0.15 0.16 0.19 0.22 0.24 0.27 0.31 0.33 0.35 0.38 0.39 0.39 0.40 0.39 0.40 0.41 0.42 0.43 0.44 0.44 0.44 0.45 0.45 0.46 0.46 0.47 0.47 0.44 0.42 0.40 0.37 0.37 0.37 0.35 0.33 0.31 0.28 0.28 0.26 0.24 0.23 0.22 0.21
0.06 0.08 0.12 0.12 0.12 0.11 0.10 0.12 0.11 0.11 0.09 0.11 0.10 0.08 0.07 0.06 0.07 0.07 0.07 0.08 0.09 0.09 0.10 0.08 0.07 0.06 0.07 0.06 0.06 0.07 0.08 0.08 0.09 0.09 0.10 0.10 0.11 0.11 0.12 0.12 0.13 0.12 0.13 0.13 0.15 0.17 0.20 0.22 0.24 0.27 0.30 0.34 0.35 0.36 0.36 0.37 0.37 0.36 0.36 0.38 0.40 0.41 0.41 0.42 0.44 0.45 0.46 0.46 0.45 0.45 0.43 0.41 0.39 0.38 0.37 0.35 0.32 0.30 0.28 0.27 0.25 0.24 0.24 0.23 0.22 0.22
0.07 0.11 0.13 0.11 0.11 0.11 0.10 0.09 0.10 0.10 0.08 0.08 0.09 0.08 0.07 0.08 0.08 0.08 0.09 0.08 0.07 0.07 0.09 0.09 0.06 0.05 0.07 0.07 0.07 0.07 0.07 0.08 0.09 0.09 0.09 0.10 0.10 0.11 0.11 0.11 0.12 0.13 0.14 0.14 0.14 0.15 0.17 0.20 0.23 0.26 0.29 0.31 0.33 0.34 0.36 0.37 0.37 0.38 0.38 0.39 0.40 0.41 0.42 0.42 0.43 0.44 0.44 0.43 0.42 0.40 0.37 0.33 0.32 0.30 0.30 0.27 0.24 0.24 0.24 0.23 0.24 0.25 0.24 0.23 0.22 0.22
0.08 0.11 0.11 0.09 0.10 0.10 0.10 0.09 0.10 0.11 0.08 0.07 0.07 0.09 0.09 0.09 0.09 0.09 0.08 0.08 0.06 0.06 0.09 0.10 0.06 0.05 0.07 0.08 0.08 0.08 0.09 0.09 0.10 0.10 0.10 0.10 0.10 0.11 0.11 0.11 0.11 0.12 0.13 0.15 0.15 0.17 0.17 0.19 0.20 0.23 0.26 0.29 0.30 0.32 0.35 0.38 0.39 0.39 0.39 0.39 0.39 0.39 0.40 0.41 0.42 0.43 0.43 0.42 0.42 0.40 0.38 0.34 0.30 0.28 0.27 0.28 0.27 0.26 0.25 0.25 0.24 0.23 0.23 0.23 0.22 0.21
0.10 0.10 0.10 0.11 0.10 0.09 0.09 0.08 0.09 0.10 0.08 0.07 0.10 0.10 0.10 0.09 0.09 0.08 0.08 0.08 0.07 0.09 0.09 0.09 0.08 0.06 0.06 0.08 0.10 0.11 0.11 0.10 0.10 0.10 0.10 0.11 0.11 0.12 0.12 0.12 0.12 0.12 0.13 0.13 0.14 0.15 0.17 0.18 0.18 0.19 0.22 0.25 0.27 0.29 0.33 0.36 0.38 0.38 0.38 0.38 0.38 0.39 0.40 0.41 0.41 0.42 0.42 0.40 0.40 0.39 0.38 0.35 0.31 0.29 0.27 0.26 0.25 0.26 0.26 0.25 0.24 0.23 0.23 0.22 0.22 0.21
0.08 0.08 0.09 0.09 0.09 0.09 0.08 0.09 0.10 0.11 0.08 0.08 0.10 0.11 0.10 0.10 0.09 0.09 0.09 0.08 0.09 0.08 0.07 0.09 0.11 0.08 0.07 0.08 0.11 0.12 0.11 0.11 0.11 0.11 0.10 0.11 0.12 0.12 0.13 0.13 0.13 0.13 0.14 0.15 0.15 0.15 0.15 0.16 0.17 0.18 0.20 0.23 0.25 0.29 0.31 0.32 0.33 0.35 0.37 0.38 0.39 0.39 0.39 0.40 0.40 0.40 0.40 0.40 0.40 0.39 0.37 0.33 0.31 0.30 0.29 0.27 0.26 0.25 0.24 0.23 0.23 0.23 0.22 0.22 0.21 0.21
0.09 0.10 0.10 0.10 0.09 0.08 0.10 0.11 0.12 0.12 0.09 0.10 0.12 0.13 0.13 0.13 0.12 0.11 0.09 0.09 0.09 0.08 0.07 0.08 0.10 0.08 0.07 0.08 0.09 0.11 0.11 0.12 0.12 0.12 0.12 0.12 0.13 0.13 0.14 0.14 0.14 0.14 0.15 0.16 0.16 0.17 0.17 0.18 0.18 0.19 0.20 0.23 0.25 0.27 0.29 0.31 0.33 0.34 0.36 0.37 0.37 0.36 0.37 0.38 0.38 0.39 0.39 0.40 0.40 0.38 0.36 0.32 0.30 0.29 0.27 0.26 0.24 0.23 0.23 0.22 0.22 0.21 0.21 0.21 0.20 0.20
0.10 0.15 0.15 0.11 0.09 0.10 0.11 0.13 0.13 0.13 0.12 0.14 0.14 0.11 0.11 0.10 0.11 0.12 0.12 0.11 0.10 0.07 0.08 0.09 0.10 0.09 0.07 0.07 0.09 0.10 0.11 0.12 0.13 0.13 0.14 0.14 0.14 0.15 0.15 0.15 0.15 0.15 0.15 0.16 0.17 0.18 0.19 0.20 0.21 0.22 0.21 0.22 0.23 0.26 0.28 0.29 0.30 0.31 0.32 0.33 0.33 0.33 0.35 0.37 0.37 0.37 0.37 0.38 0.38 0.36 0.34 0.32 0.29 0.27 0.25 0.23 0.22 0.22 0.22 0.21 0.21 0.20 0.19 0.20 0.20 0.20
0.11 0.12 0.11 0.12 0.14 0.13 0.14 0.12 0.15 0.15 0.15 0.13 0.11 0.10 0.09 0.08 0.11 0.11 0.11 0.12 0.09 0.07 0.09 0.10 0.10 0.10 0.07 0.07 0.10 0.12 0.13 0.14 0.14 0.13 0.14 0.14 0.15 0.15 0.15 0.15 0.15 0.16 0.16 0.17 0.18 0.18 0.18 0.19 0.21 0.22 0.21 0.22 0.23 0.25 0.26 0.27 0.28 0.28 0.29 0.30 0.31 0.32 0.33 0.34 0.35 0.36 0.36 0.37 0.36 0.36 0.34 0.32 0.30 0.27 0.24 0.22 0.20 0.20 0.20 0.20 0.20 0.20 0.19 0.19 0.20 0.20
0.08 0.09 0.12 0.13 0.16 0.13 0.12 0.11 0.12 0.14 0.14 0.13 0.11 0.10 0.08 0.07 0.07 0.07 0.09 0.07 0.08 0.07 0.09 0.11 0.11 0.09 0.08 0.08 0.10 0.12 0.13 0.14 0.15 0.15 0.15 0.15 0.15 0.16 0.15 0.15 0.15 0.16 0.17 0.17 0.18 0.18 0.18 0.18 0.19 0.19 0.20 0.22 0.23 0.23 0.24 0.25 0.27 0.28 0.28 0.29 0.29 0.29 0.31 0.31 0.33 0.33 0.34 0.35 0.35 0.34 0.33 0.31 0.30 0.28 0.25 0.22 0.21 0.21 0.20 0.20 0.19 0.19 0.18 0.18 0.19 0.19
0.07 0.09 0.12 0.13 0.14 0.16 0.14 0.10 0.09 0.10 0.12 0.11 0.10 0.09 0.08 0.07 0.07 0.07 0.07 0.08 0.08 0.08 0.10 0.10 0.13 0.09 0.09 0.10 0.12 0.12 0.13 0.14 0.15 0.16 0.16 0.16 0.16 0.16 0.16 0.15 0.15 0.17 0.17 0.17 0.18 0.18 0.18 0.18 0.19 0.20 0.20 0.22 0.23 0.24 0.25 0.26 0.27 0.28 0.28 0.28 0.28 0.28 0.30 0.31 0.31 0.32 0.32 0.33 0.34 0.34 0.33 0.31 0.30 0.28 0.25 0.23 0.22 0.21 0.21 0.20 0.20 0.19 0.18 0.17 0.18 0.18
0.06 0.06 0.09 0.11 0.09 0.15 0.13 0.11 0.11 0.10 0.11 0.11 0.11 0.10 0.09 0.08 0.08 0.07 0.07 0.07 0.07 0.08 0.09 0.11 0.09 0.08 0.08 0.09 0.13 0.13 0.15 0.15 0.16 0.16 0.16 0.17 0.17 0.17 0.18 0.18 0.18 0.18 0.19 0.20 0.20 0.19 0.19 0.20 0.21 0.21 0.22 0.23 0.23 0.25 0.26 0.27 0.27 0.28 0.28 0.29 0.28 0.29 0.30 0.30 0.30 0.31 0.31 0.31 0.33 0.33 0.32 0.31 0.29 0.28 0.26 0.24 0.23 0.22 0.21 0.21 0.20 0.20 0.19 0.18 0.19 0.20
0.07 0.07 0.08 0.13 0.14 0.14 0.12 0.14 0.13 0.12 0.11 0.12 0.12 0.12 0.10 0.09 0.10 0.08 0.09 0.09 0.09 0.09 0.09 0.10 0.09 0.10 0.10 0.13 0.13 0.14 0.14 0.15 0.17 0.16 0.17 0.17 0.19 0.19 0.19 0.19 0.20 0.20 0.20 0.20 0.20 0.22 0.23 0.23 0.23 0.23 0.24 0.24 0.25 0.26 0.27 0.27 0.28 0.28 0.28 0.29 0.29 0.29 0.30 0.31 0.31 0.31 0.31 0.32 0.32 0.33 0.33 0.31 0.29 0.27 0.27 0.25 0.24 0.23 0.22 0.22 0.21 0.20 0.20 0.20 0.20 0.21
0.08 0.07 0.11 0.13 0.15 0.14 0.14 0.15 0.14 0.13 0.09 0.12 0.12 0.10 0.11 0.14 0.12 0.10 0.10 0.11 0.11 0.10 0.09 0.10 0.10 0.10 0.12 0.12 0.16 0.16 0.15 0.15 0.16 0.17 0.18 0.18 0.19 0.19 0.19 0.20 0.21 0.21 0.21 0.21 0.21 0.21 0.22 0.25 0.27 0.27 0.26 0.27 0.28 0.27 0.27 0.28 0.28 0.28 0.29 0.29 0.29 0.30 0.31 0.31 0.32 0.32 0.32 0.32 0.32 0.32 0.33 0.32 0.30 0.27 0.26 0.25 0.24 0.24 0.23 0.22 0.22 0.21 0.21 0.22 0.22 0.23
0.08 0.08 0.10 0.11 0.10 0.15 0.17 0.17 0.16 0.16 0.15 0.13 0.11 0.12 0.14 0.15 0.14 0.11 0.09 0.10 0.10 0.09 0.09 0.10 0.09 0.10 0.10 0.09 0.15 0.14 0.14 0.15 0.16 0.17 0.18 0.18 0.19 0.18 0.19 0.20 0.20 0.21 0.21 0.22 0.22 0.22 0.23 0.25 0.26 0.27 0.29 0.29 0.29 0.29 0.29 0.29 0.30 0.30 0.30 0.30 0.29 0.30 0.30 0.31 0.31 0.32 0.32 0.32 0.32 0.32 0.32 0.32 0.32 0.29 0.27 0.27 0.26 0.26 0.25 0.23 0.23 0.22 0.22 0.22 0.23 0.24
0.12 0.09 0.09 0.12 0.13 0.15 0.17 0.17 0.15 0.17 0.17 0.13 0.12 0.17 0.12 0.10 0.09 0.12 0.10 0.08 0.08 0.08 0.08 0.09 0.10 0.10 0.11 0.10 0.13 0.14 0.14 0.15 0.16 0.17 0.17 0.17 0.18 0.18 0.19 0.20 0.21 0.21 0.21 0.22 0.22 0.22 0.22 0.23 0.24 0.25 0.26 0.27 0.29 0.30 0.31 0.31 0.31 0.30 0.30 0.30 0.31 0.30 0.31 0.31 0.32 0.32 0.33 0.33 0.32 0.32 0.33 0.33 0.32 0.32 0.30 0.29 0.29 0.28 0.27 0.25 0.24 0.23 0.23 0.24 0.24 0.25
0.13 0.10 0.09 0.13 0.13 0.15 0.15 0.15 0.10 0.12 0.16 0.17 0.17 0.14 0.15 0.12 0.10 0.09 0.09 0.10 0.09 0.08 0.08 0.08 0.09 0.08 0.13 0.13 0.15 0.15 0.16 0.17 0.17 0.17 0.17 0.18 0.19 0.19 0.20 0.21 0.21 0.21 0.22 0.22 0.23 0.23 0.23 0.23 0.24 0.24 0.24 0.25 0.27 0.28 0.30 0.31 0.31 0.30 0.30 0.30 0.30 0.31 0.31 0.32 0.32 0.32 0.32 0.33 0.33 0.33 0.33 0.33 0.33 0.33 0.32 0.30 0.29 0.28 0.28 0.27 0.25 0.24 0.24 0.24 0.25 0.26
0.12 0.12 0.08 0.10 0.14 0.13 0.10 0.13 0.10 0.11 0.11 0.12 0.12 0.11 0.12 0.12 0.13 0.12 0.12 0.10 0.09 0.08 0.08 0.08 0.07 0.09 0.13 0.17 0.17 0.17 0.18 0.19 0.19 0.18 0.19 0.20 0.20 0.21 0.22 0.22 0.22 0.23 0.23 0.23 0.24 0.24 0.24 0.24 0.25 0.25 0.26 0.26 0.27 0.28 0.29 0.30 0.31 0.31 0.31 0.30 0.30 0.30 0.31 0.31 0.32 0.32 0.32 0.33 0.33 0.33 0.33 0.33 0.33 0.33 0.33 0.32 0.31 0.30 0.29 0.29 0.28 0.26 0.26 0.26 0.26 0.26
0.12 0.11 0.09 0.09 0.09 0.09 0.09 0.12 0.12 0.11 0.11 0.11 0.10 0.10 0.11 0.10 0.10 0.09 0.08 0.11 0.10 0.09 0.08 0.08 0.08 0.11 0.15 0.19 0.20 0.19 0.21 0.21 0.21 0.21 0.21 0.22 0.22 0.22 0.23 0.24 0.24 0.23 0.24 0.24 0.24 0.25 0.25 0.25 0.26 0.26 0.27 0.27 0.27 0.27 0.27 0.29 0.30 0.30 0.31 0.31 0.31 0.31 0.31 0.31 0.31 0.32 0.32 0.33 0.33 0.33 0.33 0.33 0.33 0.33 0.33 0.32 0.31 0.31 0.30 0.30 0.29 0.29 0.28 0.27 0.27 0.28
0.13 0.12 0.10 0.09 0.08 0.09 0.10 0.11 0.13 0.13 0.13 0.13 0.13 0.12 0.14 0.13 0.13 0.11 0.09 0.10 0.12 0.12 0.12 0.11 0.10 0.11 0.18 0.21 0.21 0.21 0.22 0.22 0.22 0.22 0.21 0.23 0.23 0.24 0.25 0.25 0.25 0.25 0.25 0.25 0.25 0.26 0.27 0.27 0.27 0.27 0.27 0.27 0.27 0.27 0.28 0.28 0.29 0.29 0.30 0.31 0.31 0.31 0.31 0.32 0.32 0.32 0.33 0.32 0.32 0.32 0.32 0.32 0.32 0.32 0.32 0.32 0.32 0.31 0.31 0.31 0.31 0.31 0.30 0.30 0.29 0.29
0.15 0.12 0.10 0.11 0.12 0.13 0.14 0.16 0.17 0.18 0.17 0.16 0.16 0.18 0.17 0.15 0.15 0.14 0.14 0.14 0.13 0.12 0.11 0.11 0.10 0.12 0.19 0.22 0.21 0.21 0.22 0.23 0.23 0.22 0.22 0.23 0.25 0.26 0.26 0.26 0.26 0.26 0.26 0.26 0.26 0.27 0.28 0.28 0.28 0.27 0.27 0.28 0.28 0.28 0.28 0.28 0.29 0.29 0.30 0.31 0.31 0.31 0.32 0.32 0.32 0.32 0.32 0.32 0.32 0.32 0.32 0.31 0.32 0.32 0.32 0.31 0.31 0.31 0.32 0.32 0.32 0.32 0.32 0.32 0.32 0.32
0.16 0.18 0.16 0.14 0.14 0.13 0.13 0.14 0.14 0.16 0.16 0.14 0.14 0.15 0.16 0.16 0.15 0.15 0.15 0.16 0.13 0.12 0.12 0.12 0.09 0.11 0.20 0.22 0.22 0.22 0.22 0.22 0.22 0.23 0.23 0.23 0.25 0.26 0.27 0.28 0.28 0.28 0.27 0.27 0.27 0.28 0.28 0.29 0.28 0.28 0.28 0.29 0.29 0.29 0.29 0.29 0.29 0.30 0.30 0.31 0.31 0.31 0.31 0.32 0.32 0.32 0.32 0.32 0.32 0.32 0.32 0.32 0.32 0.32 0.32 0.32 0.32 0.32 0.32 0.32 0.33 0.33 0.34 0.34 0.34 0.34
0.18 0.15 0.14 0.10 0.08 0.07 0.06 0.06 0.07 0.08 0.09 0.12 0.13 0.14 0.16 0.15 0.15 0.15 0.12 0.14 0.12 0.13 0.14 0.12 0.12 0.15 0.19 0.20 0.20 0.21 0.21 0.21 0.23 0.23 0.23 0.24 0.25 0.26 0.27 0.28 0.29 0.29 0.28 0.29 0.29 0.29 0.29 0.30 0.30 0.30 0.30 0.30 0.31 0.31 0.30 0.30 0.31 0.31 0.31 0.31 0.31 0.31 0.32 0.32 0.33 0.33 0.33 0.33 0.33 0.33 0.33 0.33 0.33 0.33 0.33 0.33 0.33 0.33 0.33 0.33 0.34 0.34 0.34 0.35 0.35 0.35
0.14 0.13 0.12 0.12 0.10 0.09 0.10 0.12 0.15 0.15 0.14 0.12 0.12 0.14 0.15 0.16 0.17 0.16 0.15 0.13 0.12 0.14 0.13 0.14 0.16 0.16 0.17 0.18 0.18 0.20 0.21 0.21 0.21 0.23 0.22 0.23 0.24 0.26 0.28 0.28 0.28 0.29 0.30 0.30 0.30 0.31 0.31 0.30 0.29 0.30 0.31 0.32 0.32 0.32 0.32 0.32 0.31 0.32 0.32 0.32 0.32 0.32 0.32 0.32 0.32 0.32 0.32 0.32 0.32 0.33 0.33 0.33 0.33 0.33 0.33 0.33 0.33 0.34 0.34 0.34 0.34 0.35 0.35 0.35 0.35 0.33
0.14 0.11 0.12 0.13 0.12 0.12 0.14 0.14 0.15 0.16 0.15 0.15 0.14 0.13 0.15 0.15 0.15 0.14 0.13 0.12 0.16 0.13 0.10 0.15 0.16 0.14 0.15 0.16 0.17 0.18 0.19 0.20 0.21 0.22 0.22 0.21 0.22 0.25 0.26 0.26 0.26 0.27 0.28 0.29 0.30 0.30 0.29 0.29 0.29 0.30 0.31 0.32 0.33 0.33 0.33 0.33 0.33 0.32 0.33 0.34 0.34 0.34 0.33 0.33 0.32 0.32 0.32 0.32 0.32 0.32 0.33 0.33 0.34 0.34 0.34 0.34 0.34 0.33 0.33 0.34 0.34 0.34 0.34 0.34 0.33 0.31
0.13 0.10 0.12 0.13 0.11 0.12 0.14 0.15 0.15 0.15 0.15 0.14 0.14 0.14 0.13 0.14 0.14 0.12 0.12 0.14 0.14 0.11 0.10 0.12 0.14 0.12 0.14 0.15 0.16 0.17 0.17 0.18 0.18 0.19 0.20 0.19 0.19 0.21 0.23 0.23 0.23 0.24 0.24 0.25 0.25 0.25 0.25 0.25 0.26 0.27 0.28 0.30 0.30 0.30 0.31 0.32 0.32 0.32 0.32 0.33 0.35 0.36 0.35 0.35 0.34 0.33 0.32 0.32 0.32 0.32 0.33 0.33 0.33 0.33 0.33 0.33 0.33 0.33 0.32 0.32 0.32 0.32 0.32 0.32 0.31 0.30
0.14 0.10 0.13 0.13 0.10 0.10 0.12 0.13 0.14 0.13 0.13 0.14 0.14 0.14 0.15 0.14 0.13 0.13 0.13 0.15 0.14 0.13 0.14 0.14 0.13 0.13 0.15 0.16 0.17 0.18 0.19 0.19 0.19 0.21 0.21 0.19 0.17 0.19 0.21 0.21 0.21 0.21 0.22 0.23 0.24 0.23 0.22 0.23 0.23 0.24 0.25 0.26 0.26 0.27 0.28 0.28 0.29 0.30 0.30 0.31 0.32 0.34 0.35 0.35 0.34 0.34 0.33 0.32 0.32 0.33 0.33 0.32 0.32 0.32 0.32 0.32 0.32 0.32 0.32 0.31 0.31 0.31 0.30 0.30 0.29 0.29
0.11 0.09 0.13 0.11 0.09 0.08 0.11 0.12 0.12 0.12 0.13 0.12 0.12 0.13 0.13 0.13 0.14 0.14 0.12 0.13 0.14 0.13 0.13 0.13 0.13 0.13 0.17 0.18 0.17 0.18 0.18 0.18 0.18 0.19 0.19 0.18 0.17 0.17 0.19 0.19 0.20 0.20 0.20 0.22 0.22 0.20 0.20 0.20 0.21 0.22 0.22 0.23 0.24 0.24 0.25 0.25 0.26 0.27 0.27 0.28 0.29 0.30 0.32 0.33 0.33 0.32 0.32 0.32 0.32 0.32 0.31 0.31 0.30 0.31 0.31 0.31 0.31 0.31 0.31 0.30 0.30 0.30 0.29 0.28 0.28 0.28
0.13 0.10 0.12 0.11 0.08 0.06 0.09 0.09 0.09 0.12 0.12 0.11 0.10 0.11 0.12 0.12 0.10 0.10 0.10 0.12 0.12 0.11 0.13 0.13 0.11 0.12 0.15 0.17 0.17 0.18 0.17 0.17 0.17 0.18 0.18 0.17 0.15 0.17 0.18 0.18 0.19 0.19 0.19 0.20 0.19 0.18 0.18 0.18 0.19 0.19 0.20 0.22 0.22 0.22 0.23 0.24 0.24 0.24 0.24 0.24 0.25 0.26 0.28 0.29 0.29 0.30 0.30 0.31 0.31 0.31 0.31 0.30 0.29 0.29 0.29 0.29 0.29 0.29 0.29 0.29 0.29 0.29 0.28 0.28 0.27 0.27
0.11 0.11 0.09 0.09 0.06 0.05 0.07 0.08 0.09 0.10 0.10 0.08 0.09 0.11 0.11 0.11 0.11 0.12 0.13 0.13 0.15 0.15 0.12 0.10 0.11 0.15 0.16 0.17 0.15 0.15 0.15 0.15 0.15 0.17 0.16 0.15 0.15 0.17 0.18 0.18 0.18 0.18 0.17 0.16 0.17 0.17 0.17 0.18 0.17 0.17 0.19 0.20 0.20 0.21 0.22 0.23 0.23 0.22 0.22 0.23 0.23 0.24 0.24 0.25 0.25 0.26 0.26 0.27 0.29 0.30 0.30 0.30 0.29 0.29 0.28 0.28 0.29 0.28 0.28 0.28 0.28 0.28 0.27 0.27 0.27 0.27
0.12 0.11 0.09 0.10 0.06 0.05 0.06 0.08 0.11 0.08 0.04 0.06 0.12 0.14 0.13 0.11 0.12 0.11 0.11 0.12 0.15 0.16 0.13 0.15 0.15 0.16 0.16 0.15 0.14 0.14 0.14 0.14 0.15 0.15 0.15 0.14 0.15 0.17 0.17 0.18 0.17 0.15 0.15 0.16 0.16 0.16 0.16 0.16 0.16 0.17 0.19 0.18 0.19 0.21 0.21 0.21 0.21 0.21 0.22 0.23 0.23 0.22 0.22 0.22 0.22 0.23 0.23 0.24 0.24 0.25 0.27 0.28 0.29 0.29 0.28 0.28 0.28 0.28 0.27 0.27 0.27 0.27 0.27 0.27 0.27 0.26
0.08 0.08 0.08 0.10 0.07 0.06 0.08 0.10 0.06 0.03 0.04 0.11 0.13 0.15 0.15 0.15 0.15 0.13 0.12 0.12 0.15 0.15 0.15 0.13 0.14 0.14 0.14 0.14 0.15 0.15 0.15 0.14 0.13 0.12 0.12 0.14 0.17 0.17 0.16 0.15 0.14 0.14 0.15 0.16 0.16 0.16 0.15 0.15 0.15 0.16 0.16 0.17 0.19 0.19 0.19 0.18 0.19 0.20 0.20 0.21 0.21 0.22 0.22 0.22 0.21 0.21 0.22 0.22 0.22 0.23 0.24 0.25 0.26 0.27 0.28 0.28 0.28 0.27 0.27 0.27 0.27 0.27 0.27 0.26 0.26 0.26
0.08 0.09 0.09 0.09 0.10 0.10 0.09 0.07 0.03 0.03 0.09 0.13 0.14 0.15 0.16 0.15 0.14 0.11 0.09 0.12 0.13 0.13 0.13 0.12 0.12 0.13 0.13 0.13 0.14 0.14 0.12 0.11 0.10 0.10 0.12 0.15 0.17 0.16 0.15 0.14 0.13 0.15 0.16 0.16 0.16 0.15 0.15 0.15 0.15 0.15 0.15 0.18 0.18 0.17 0.17 0.17 0.19 0.19 0.19 0.20 0.20 0.20 0.21 0.21 0.21 0.21 0.21 0.21 0.21 0.22 0.22 0.23 0.24 0.24 0.25 0.26 0.27 0.27 0.27 0.26 0.26 0.26 0.26 0.26 0.26 0.26
0.11 0.10 0.10 0.08 0.12 0.07 0.07 0.07 0.06 0.09 0.10 0.11 0.12 0.14 0.13 0.10 0.10 0.10 0.07 0.08 0.12 0.13 0.13 0.12 0.12 0.13 0.13 0.14 0.13 0.13 0.12 0.12 0.10 0.10 0.13 0.15 0.15 0.15 0.14 0.14 0.15 0.16 0.17 0.17 0.17 0.16 0.16 0.16 0.15 0.15 0.17 0.17 0.17 0.17 0.17 0.18 0.19 0.19 0.18 0.18 0.19 0.19 0.20 0.20 0.20 0.20 0.21 0.21 0.22 0.22 0.22 0.22 0.22 0.23 0.23 0.24 0.24 0.25 0.26 0.26 0.26 0.26 0.26 0.25 0.25 0.25
0.12 0.09 0.11 0.09 0.08 0.10 0.07 0.05 0.05 0.05 0.04 0.07 0.12 0.15 0.16 0.14 0.14 0.13 0.10 0.08 0.14 0.15 0.15 0.14 0.12 0.12 0.12 0.12 0.12 0.12 0.12 0.10 0.07 0.08 0.11 0.13 0.13 0.14 0.15 0.15 0.17 0.18 0.18 0.17 0.17 0.16 0.16 0.15 0.15 0.16 0.17 0.16 0.15 0.16 0.17 0.17 0.18 0.18 0.18 0.18 0.18 0.18 0.18 0.19 0.19 0.20 0.21 0.21 0.22 0.22 0.22 0.21 0.22 0.22 0.22 0.23 0.23 0.23 0.24 0.25 0.25 0.25 0.25 0.24 0.24 0.24
0.12 0.12 0.11 0.09 0.07 0.08 0.06 0.05 0.05 0.05 0.05 0.10 0.12 0.14 0.14 0.14 0.13 0.12 0.09 0.06 0.14 0.14 0.13 0.12 0.12 0.12 0.13 0.12 0.12 0.12 0.11 0.08 0.07 0.08 0.11 0.12 0.13 0.14 0.14 0.14 0.15 0.16 0.16 0.16 0.16 0.16 0.16 0.16 0.16 0.16 0.16 0.15 0.15 0.16 0.17 0.17 0.17 0.17 0.17 0.17 0.18 0.18 0.18 0.18 0.19 0.20 0.20 0.21 0.22 0.22 0.22 0.22 0.22 0.22 0.22 0.22 0.22 0.22 0.22 0.23 0.24 0.24 0.25 0.24 0.24 0.24
0.10 0.10 0.09 0.08 0.07 0.08 0.07 0.06 0.05 0.06 0.06 0.09 0.12 0.14 0.14 0.15 0.13 0.09 0.05 0.06 0.10 0.11 0.12 0.13 0.13 0.13 0.13 0.13 0.13 0.12 0.11 0.09 0.09 0.10 0.12 0.13 0.14 0.14 0.14 0.13 0.13 0.13 0.13 0.15 0.17 0.17 0.16 0.16 0.16 0.15 0.15 0.15 0.16 0.16 0.16 0.17 0.17 0.16 0.16 0.17 0.17 0.17 0.17 0.18 0.19 0.20 0.20 0.21 0.21 0.21 0.22 0.22 0.21 0.21 0.21 0.21 0.21 0.21 0.21 0.22 0.22 0.22 0.23 0.23 0.23 0.23
0.08 0.09 0.09 0.07 0.07 0.07 0.07 0.07 0.08 0.08 0.12 0.14 0.14 0.14 0.14 0.13 0.11 0.07 0.05 0.08 0.11 0.12 0.14 0.14 0.14 0.15 0.14 0.14 0.13 0.11 0.12 0.12 0.13 0.13 0.13 0.13 0.13 0.13 0.14 0.14 0.14 0.14 0.14 0.15 0.16 0.16 0.16 0.16 0.15 0.15 0.16 0.16 0.17 0.17 0.17 0.17 0.16 0.16 0.16 0.16 0.16 0.16 0.17 0.18 0.18 0.19 0.20 0.20 0.20 0.20 0.21 0.21 0.21 0.21 0.21 0.21 0.21 0.21 0.21 0.21 0.21 0.21 0.21 0.21 0.22 0.22
0.08 0.09 0.09 0.09 0.07 0.07 0.08 0.07 0.07 0.08 0.12 0.15 0.14 0.14 0.14 0.11 0.07 0.06 0.10 0.14 0.14 0.13 0.15 0.15 0.15 0.15 0.15 0.14 0.14 0.13 0.13 0.14 0.14 0.14 0.14 0.14 0.13 0.13 0.14 0.14 0.14 0.14 0.15 0.15 0.15 0.15 0.16 0.15 0.15 0.15 0.16 0.17 0.17 0.17 0.17 0.17 0.16 0.16 0.16 0.16 0.16 0.17 0.18 0.18 0.19 0.19 0.19 0.19 0.19 0.20 0.20 0.20 0.21 0.21 0.21 0.21 0.21 0.20 0.20 0.20 0.20 0.20 0.20 0.20 0.20 0.20
0.08 0.07 0.07 0.07 0.08 0.09 0.09 0.07 0.06 0.05 0.11 0.14 0.13 0.13 0.15 0.10 0.10 0.14 0.14 0.14 0.15 0.15 0.15 0.16 0.16 0.16 0.15 0.14 0.14 0.14 0.14 0.14 0.14 0.14 0.14 0.14 0.14 0.13 0.13 0.14 0.14 0.14 0.13 0.13 0.14 0.15 0.16 0.15 0.14 0.14 0.16 0.17 0.17 0.17 0.17 0.17 0.16 0.16 0.16 0.16 0.16 0.18 0.18 0.19 0.19 0.19 0.19 0.19 0.19 0.19 0.19 0.19 0.20 0.20 0.21 0.21 0.21 0.20 0.20 0.20 0.20 0.20 0.20 0.19 0.19 0.19
0.12 0.08 0.08 0.08 0.12 0.07 0.07 0.06 0.07 0.09 0.12 0.15 0.14 0.10 0.12 0.14 0.16 0.16 0.15 0.13 0.15 0.16 0.16 0.16 0.16 0.16 0.16 0.15 0.14 0.14 0.14 0.14 0.14 0.14 0.14 0.14 0.14 0.14 0.14 0.14 0.15 0.15 0.14 0.14 0.14 0.15 0.15 0.14 0.14 0.15 0.16 0.17 0.17 0.17 0.17 0.16 0.16 0.16 0.15 0.16 0.17 0.18 0.18 0.19 0.19 0.19 0.18 0.18 0.19 0.19 0.19 0.19 0.19 0.19 0.20 0.20 0.20 0.20 0.19 0.19 0.19 0.19 0.19 0.19 0.18 0.18
0.14 0.10 0.11 0.08 0.11 0.10 0.09 0.10 0.12 0.13 0.14 0.15 0.15 0.15 0.16 0.16 0.16 0.16 0.15 0.15 0.15 0.16 0.17 0.16 0.16 0.16 0.16 0.15 0.15 0.15 0.14 0.14 0.14 0.14 0.14 0.14 0.14 0.14 0.14 0.14 0.15 0.15 0.14 0.14 0.14 0.15 0.15 0.14 0.14 0.15 0.16 0.16 0.16 0.17 0.17 0.17 0.16 0.16 0.15 0.16 0.17 0.18 0.18 0.18 0.18 0.18 0.18 0.18 0.18 0.18 0.18 0.18 0.18 0.18 0.19 0.19 0.19 0.18 0.19 0.18 0.19 0.18 0.18 0.18 0.17 0.17
0.14 0.15 0.15 0.13 0.12 0.15 0.15 0.15 0.15 0.15 0.15 0.15 0.16 0.17 0.16 0.16 0.16 0.16 0.15 0.15 0.16 0.17 0.18 0.17 0.16 0.15 0.15 0.16 0.15 0.15 0.14 0.14 0.14 0.14 0.14 0.14 0.14 0.15 0.15 0.15 0.15 0.15 0.15 0.15 0.15 0.15 0.15 0.15 0.15 0.15 0.15 0.15 0.16 0.16 0.17 0.17 0.16 0.15 0.16 0.17 0.17 0.18 0.18 0.18 0.18 0.17 0.17 0.17 0.17 0.17 0.18 0.17 0.17 0.18 0.18 0.18 0.18 0.18 0.18 0.18 0.18 0.17 0.17 0.17 0.16 0.16
0.15 0.15 0.14 0.12 0.14 0.12 0.09 0.13 0.13 0.14 0.15 0.16 0.16 0.16 0.17 0.17 0.16 0.16 0.16 0.15 0.16 0.17 0.17 0.16 0.16 0.17 0.17 0.17 0.16 0.15 0.14 0.14 0.14 0.14 0.14 0.14 0.15 0.15 0.15 0.15 0.14 0.15 0.15 0.15 0.15 0.15 0.15 0.15 0.14 0.15 0.15 0.15 0.16 0.16 0.16 0.16 0.16 0.16 0.16 0.16 0.17 0.17 0.18 0.17 0.17 0.17 0.17 0.17 0.17 0.17 0.17 0.17 0.17 0.17 0.17 0.17 0.17 0.17 0.17 0.17 0.16 0.16 0.16 0.15 0.15 0.15
0.12 0.18 0.13 0.14 0.14 0.12 0.11 0.13 0.14 0.15 0.16 0.16 0.16 0.16 0.15 0.15 0.15 0.15 0.15 0.16 0.16 0.16 0.17 0.17 0.18 0.17 0.17 0.15 0.15 0.15 0.14 0.14 0.14 0.14 0.14 0.15 0.15 0.15 0.15 0.14 0.14 0.15 0.15 0.15 0.15 0.15 0.15 0.14 0.14 0.14 0.15 0.15 0.16 0.16 0.16 0.16 0.16 0.16 0.16 0.16 0.17 0.17 0.17 0.17 0.17 0.16 0.16 0.17 0.17 0.17 0.17 0.16 0.16 0.16 0.16 0.16 0.16 0.16 0.16 0.16 0.15 0.15 0.15 0.14 0.14 0.14
0.15 0.16 0.12 0.15 0.13 0.13 0.14 0.14 0.15 0.15 0.14 0.15 0.15 0.15 0.16 0.15 0.15 0.15 0.15 0.15 0.16 0.17 0.17 0.16 0.16 0.16 0.16 0.15 0.15 0.15 0.15 0.15 0.15 0.16 0.15 0.15 0.16 0.16 0.15 0.15 0.15 0.15 0.15 0.15 0.15 0.15 0.14 0.14 0.14 0.14 0.15 0.15 0.16 0.16 0.16 0.16 0.16 0.16 0.16 0.16 0.16 0.17 0.16 0.16 0.16 0.16 0.16 0.16 0.16 0.16 0.16 0.16 0.16 0.16 0.16 0.16 0.16 0.16 0.15 0.15 0.15 0.15 0.15 0.15 0.15 0.14
0.15 0.13 0.16 0.14 0.11 0.10 0.11 0.12 0.14 0.11 0.10 0.12 0.13 0.14 0.14 0.15 0.15 0.15 0.15 0.16 0.15 0.15 0.15 0.15 0.15 0.16 0.16 0.16 0.16 0.16 0.15 0.15 0.16 0.16 0.16 0.16 0.16 0.15 0.15 0.16 0.16 0.15 0.15 0.15 0.15 0.15 0.14 0.14 0.14 0.15 0.15 0.15 0.16 0.16 0.16 0.16 0.15 0.16 0.16 0.16 0.16 0.16 0.16 0.16 0.16 0.16 0.16 0.16 0.16 0.16 0.16 0.16 0.16 0.16 0.15 0.15 0.15 0.15 0.15 0.16 0.16 0.15 0.15 0.15 0.15 0.15
0.15 0.15 0.15 0.12 0.11 0.10 0.13 0.15 0.16 0.15 0.14 0.13 0.14 0.14 0.15 0.15 0.15 0.15 0.15 0.15 0.15 0.15 0.15 0.15 0.15 0.15 0.15 0.16 0.17 0.16 0.16 0.16 0.16 0.16 0.16 0.15 0.15 0.16 0.16 0.15 0.15 0.15 0.15 0.15 0.14 0.14 0.14 0.14 0.15 0.15 0.15 0.15 0.15 0.15 0.15 0.15 0.15 0.15 0.16 0.16 0.16 0.16 0.15 0.15 0.15 0.15 0.15 0.15 0.15 0.15 0.15 0.15 0.15 0.15 0.15 0.15 0.15 0.15 0.15 0.15 0.15 0.16 0.16 0.15 0.15 0.15
Wind_Speed
12 13 13 13 13 13 13 13 13 13 12 13 13 14 15 16 17 15 15 17 15 16 18 17 19 21 21 21 20 20 19 21 23 23 24 24 24 24 25 26 26 27 28 27 28 29 29 30 30 30 31 31 31 32 33 33 34 34 34 34 34 34 34 33 33 33 33 32 32 32 32 32 32 32 32 32 32 32 32 33 33 33 32 32 32 31
12 13 13 13 13 12 12 12 11 12 12 13 14 15 16 16 17 16 16 17 16 16 18 17 20 22 22 22 22 21 19 20 22 22 24 25 24 24 24 25 26 27 27 26 27 28 29 30 30 30 31 31 32 32 33 34 34 34 35 35 35 35 35 35 35 34 34 34 33 33 33 33 33 33 33 33 33 34 34 34 34 34 34 33 33 33
13 14 13 12 12 11 11 11 11 12 12 13 13 14 16 16 17 17 16 17 16 16 18 19 20 23 23 22 22 21 19 20 23 23 24 25 24 23 24 25 26 27 27 27 27 28 29 30 30 31 31 32 32 32 33 33 34 34 34 35 35 35 35 35 35 35 35 35 34 34 34 34 34 34 35 34 35 35 35 35 35 35 35 35 34 34
13 14 13 12 10 10 12 12 11 12 13 13 13 14 16 16 16 16 16 17 16 17 19 20 21 22 21 20 18 18 18 19 21 22 23 23 23 23 24 24 25 26 27 27 27 28 29 29 30 30 31 31 32 32 32 33 33 34 34 34 35 35 35 36 36 36 35 35 35 34 34 35 35 35 35 35 35 35 35 35 35 35 35 35 35 34
14 13 12 11 11 11 12 13 12 13 14 15 14 15 16 16 15 17 17 18 18 18 19 20 21 21 18 17 17 15 15 18 19 19 21 21 22 22 23 23 24 24 25 25 26 27 27 29 30 30 31 31 32 32 33 33 33 34 34 34 35 35 36 36 36 36 36 35 35 34 34 34 35 34 34 35 35 35 35 35 35 35 35 35 35 34
15 14 11 11 12 12 12 13 13 13 15 16 15 15 16 16 16 17 18 18 18 18 18 18 19 20 18 18 18 16 16 18 18 18 20 21 20 21 21 22 23 23 23 23 24 24 25 27 28 29 30 31 32 32 33 33 34 34 34 35 35 35 36 36 37 37 36 36 36 35 35 35 35 35 35 35 35 35 35 35 35 35 35 35 35 35
14 13 12 11 12 12 12 15 14 12 14 16 16 15 15 14 15 16 17 18 18 18 18 17 18 21 21 20 19 17 18 20 19 19 20 21 20 20 21 22 22 22 23 23 23 23 24 25 26 28 29 30 31 32 32 33 34 35 35 35 36 36 36 37 37 37 37 37 37 37 37 37 37 36 36 36 36 36 36 36 35 35 35 36 36 35
13 13 14 13 13 13 14 15 15 12 13 16 16 14 14 15 16 17 17 18 19 21 21 19 18 21 23 20 17 17 20 21 21 20 20 21 21 21 22 22 22 22 23 23 23 23 23 24 25 26 27 29 30 31 31 32 33 34 35 35 36 37 37 37 37 37 38 38 38 38 38 38 38 38 37 37 37 37 37 37 36 36 36 37 37 36
14 14 14 13 14 15 15 16 14 13 14 17 17 15 16 16 17 18 18 19 21 22 22 20 18 19 23 22 19 17 20 22 22 21 20 21 21 21 22 23 22 22 23 23 23 23 24 24 25 25 26 27 29 29 30 31 32 33 34 35 36 37 37 37 37 38 38 39 39 39 39 39 39 38 38 38 38 38 38 38 38 37 37 37 38 38
16 15 15 14 15 16 16 16 15 15 17 17 16 17 18 18 19 19 19 21 21 20 23 23 19 19 23 23 20 18 19 21 22 21 20 21 23 23 23 23 22 22 23 23 24 24 25 25 26 26 26 27 28 28 29 30 31 32 33 34 36 36 37 37 38 38 39 39 39 39 40 40 39 39 39 38 38 39 39 39 39 39 38 38 38 38
17 16 16 15 16 17 16 17 17 17 17 17 17 19 20 20 21 21 21 21 20 21 25 24 21 21 23 23 21 20 20 21 22 23 22 22 24 24 24 24 24 24 23 24 24 25 26 27 27 27 27 28 28 28 29 30 30 31 32 34 35 36 36 37 38 38 39 40 40 40 40 40 40 40 39 39 39 39 40 40 40 40 39 39 39 39
18 17 18 18 17 16 16 18 18 19 18 18 19 20 21 22 21 22 22 20 20 23 25 24 22 22 24 25 24 24 24 23 22 24 24 24 25 26 26 26 25 25 25 25 26 26 27 27 28 28 28 28 28 28 29 30 31 31 32 33 34 35 36 37 38 38 39 40 40 41 41 41 41 41 41 41 41 41 41 41 41 40 40 40 40 40
20 18 18 18 18 16 16 18 19 20 20 19 20 20 20 21 21 22 22 21 22 24 25 24 22 24 28 31 30 29 29 27 25 25 27 27 28 29 29 28 28 27 27 27 27 27 27 28 28 28 29 29 28 29 30 31 31 32 32 33 34 35 36 37 38 39 40 40 41 41 41 42 42 42 42 42 42 42 42 42 42 41 41 41 41 41
21 20 18 17 19 18 16 18 20 21 20 20 20 20 19 19 21 23 24 23 25 27 26 25 24 26 30 32 31 30 32 32 29 28 29 29 29 30 30 30 29 28 27 28 28 28 28 28 29 29 29 29 29 30 30 31 32 32 33 34 35 36 36 37 38 39 40 41 41 42 42 42 42 42 43 43 43 43 43 43 43 42 42 42 42 42
20 21 19 18 19 19 19 20 20 20 21 22 21 21 21 21 21 24 24 25 27 27 27 25 25 27 28 30 32 32 33 33 31 29 28 28 28 29 28 28 27 26 26 28 28 29 29 29 30 30 30 30 31 31 31 31 32 33 34 36 37 38 38 38 39 40 40 41 42 42 43 43 43 43 43 43 43 43 44 44 44 43 43 43 43 43
20 23 22 21 21 20 22 22 21 21 22 23 22 22 24 25 24 26 26 26 27 27 28 28 29 31 32 34 35 33 32 31 30 30 28 28 28 27 26 26 26 26 27 28 28 28 29 29 30 31 31 32 32 32 33 33 34 34 36 37 39 39 40 40 41 41 41 42 42 43 43 44 44 44 44 44 44 44 45 45 45 45 44 44 44 44
21 25 24 24 24 24 24 24 24 24 23 23 24 25 27 27 26 27 28 28 26 27 30 30 32 35 34 33 31 30 30 30 30 30 29 28 28 27 27 28 28 28 28 28 28 29 29 29 30 31 32 33 33 34 34 35 36 36 37 38 39 40 41 41 42 43 43 43 43 44 44 44 44 45 45 45 45 45 45 46 46 46 45 45 45 45
22 27 27 25 26 27 26 26 28 27 25 24 26 28 28 27 26 26 27 28 26 28 31 30 33 35 32 31 32 33 34 33 32 32 31 30 29 29 30 30 30 29 28 28 28 28 29 29 30 31 32 33 34 35 35 36 37 37 38 39 40 41 42 42 43 43 44 44 44 44 45 45 45 45 46 46 46 46 46 46 47 47 47 46 46 46
23 27 29 27 27 28 27 27 29 29 27 26 28 30 28 27 28 26 26 28 27 29 31 31 33 33 30 32 34 34 34 33 33 33 32 32 32 32 32 31 31 30 29 29 29 29 29 29 30 31 33 34 35 36 36 37 37 38 39 40 41 42 43 43 43 44 44 45 45 45 45 46 46 46 46 46 46 46 47 47 47 47 47 47 47 47
24 26 29 29 28 29 29 28 29 29 28 28 30 31 30 29 29 28 28 28 28 30 32 31 32 30 29 32 33 32 33 34 34 34 34 35 35 34 33 32 32 31 31 31 30 31 30 30 31 32 33 34 35 36 37 38 39 39 39 40 41 42 43 43 44 44 45 45 46 46 46 46 47 47 47 47 47 47 47 48 48 48 48 48 48 48
26 26 29 31 30 30 30 30 30 30 29 29 31 32 32 31 30 30 31 30 29 30 30 31 32 30 29 31 31 32 34 34 35 35 35 36 35 34 33 33 33 32 32 32 31 32 32 31 32 33 34 35 35 37 38 39 41 41 40 41 41 42 43 43 44 44 45 46 46 47 47 47 47 47 48 48 48 48 48 48 48 48 48 49 49 49
27 27 30 33 33 33 33 32 31 31 31 30 31 31 31 30 29 30 31 31 30 30 29 30 32 30 30 32 32 33 34 34 35 35 35 35 34 33 33 33 34 34 33 33 33 33 34 34 35 35 36 36 36 38 39 40 41 41 41 42 42 43 43 43 44 44 45 45 46 47 47 47 48 48 48 48 48 49 48 48 48 49 49 49 49 49
28 28 31 34 35 35 35 33 32 31 29 28 29 29 30 30 29 29 31 31 31 32 31 31 31 31 32 33 33 33 34 35 36 36 36 37 36 35 36 36 36 36 35 35 36 36 36 37 37 37 37 38 39 40 41 42 42 42 42 43 43 44 44 44 44 44 44 45 46 46 47 47 48 48 48 49 49 49 49 49 49 49 49 49 50 50
29 29 31 34 35 36 35 32 30 28 27 27 29 30 30 30 30 31 33 32 32 35 35 32 32 33 32 32 33 34 35 35 36 37 38 38 38 37 38 38 38 38 38 38 37 37 38 38 38 39 40 41 42 43 43 43 42 42 42 43 43 43 43 43 44 44 44 45 45 45 46 47 47 48 48 49 49 49 49 49 49 49 50 50 50 50
30 30 31 32 34 36 35 32 30 30 30 30 31 31 30 32 33 34 34 33 34 37 37 34 34 34 32 32 34 35 36 37 37 38 39 39 40 40 39 39 40 40 40 40 40 40 40 41 42 42 43 44 44 44 43 43 43 43 42 41 41 42 42 43 43 44 44 45 45 45 45 46 46 47 48 48 49 49 49 49 49 49 50 50 50 49
31 31 30 30 30 32 32 31 31 33 34 34 32 32 33 34 35 34 33 32 33 35 36 34 35 35 35 36 38 38 39 40 40 40 41 41 42 42 42 42 42 42 42 43 43 43 44 44 44 45 45 45 44 44 44 44 43 43 42 41 41 41 41 42 42 43 44 45 45 46 46 46 46 46 47 47 48 48 49 49 49 49 50 50 49 49
30 30 29 29 31 33 33 33 32 33 35 36 35 35 35 35 34 32 31 32 33 35 36 35 35 37 38 38 39 40 40 41 41 41 41 41 42 42 42 42 42 42 43 43 44 44 44 44 44 44 44 43 43 43 43 43 43 42 42 42 41 41 41 42 42 43 44 45 46 46 47 47 47 47 47 47 47 48 48 49 49 50 50 49 49 49
29 31 30 29 33 34 34 34 34 34 34 34 34 35 35 34 33 31 31 32 33 34 35 35 34 35 36 37 38 39 40 40 40 40 40 42 43 43 42 42 42 42 42 42 41 41 41 42 42 42 42 42 42 43 43 43 43 43 43 43 43 42 42 42 43 44 45 46 46 47 47 47 47 47 47 47 47 47 48 48 49 49 49 49 49 48
28 31 30 30 34 34 32 33 33 31 30 30 31 33 34 33 32 31 31 32 31 31 33 34 35 34 35 35 37 38 39 40 40 40 40 42 44 44 43 42 42 41 41 41 40 39 40 41 41 42 42 42 43 44 44 44 44 44 44 44 44 44 44 44 44 45 45 46 47 47 47 47 47 47 47 47 47 47 48 48 49 49 49 49 48 48
27 29 29 30 33 34 31 31 30 28 28 29 31 32 32 31 30 29 29 30 29 30 32 34 35 35 34 34 36 37 39 40 40 40 40 41 44 44 42 41 41 41 41 41 41 40 41 42 42 42 43 43 43 44 44 45 45 45 45 45 45 45 45 44 45 45 45 46 46 47 47 47 47 47 47 47 47 48 48 48 48 49 48 48 47 47
27 28 29 29 32 33 30 29 30 28 27 29 30 30 29 29 28 28 28 29 28 30 31 32 33 34 32 33 36 38 38 39 39 40 41 42 44 44 42 41 41 41 41 42 41 42 43 43 43 43 44 44 44 44 44 44 44 44 45 45 45 45 45 44 45 45 45 45 46 46 46 47 47 47 47 48 48 48 48 48 48 48 48 47 47 47
28 28 30 29 31 33 30 29 31 29 27 27 28 27 27 27 27 28 28 29 28 29 30 31 32 33 32 34 37 38 39 39 40 41 42 43 44 43 41 41 42 42 43 43 43 44 44 44 44 45 45 44 45 45 45 44 45 45 45 45 45 45 45 44 44 45 45 46 46 46 46 47 47 48 48 48 49 49 49 48 48 47 47 47 47 47
27 29 30 29 30 33 32 31 31 29 27 26 25 25 26 27 27 28 29 30 29 28 29 31 32 34 35 37 39 40 40 40 40 42 43 45 46 43 41 42 43 44 45 45 45 45 45 45 46 47 47 46 47 47 46 46 46 46 46 46 45 45 45 45 45 45 46 46 46 46 47 47 47 47 47 48 48 48 48 48 47 47 47 46 46 47
27 28 29 28 28 31 33 32 31 28 26 24 23 24 26 27 28 29 31 32 29 27 29 32 34 36 37 38 40 41 41 42 44 44 45 46 46 42 42 43 45 47 48 46 45 45 46 47 48 48 48 49 49 48 48 49 49 49 48 47 47 47 46 46 46 46 46 46 46 46 47 47 47 48 48 47 47 47 47 47 47 47 46 46 46 46
28 28 28 26 27 29 30 29 28 25 24 23 23 24 26 27 28 31 33 32 30 29 32 34 36 37 38 39 40 41 43 44 46 46 46 45 41 40 42 45 47 49 48 46 45 46 46 47 48 48 49 49 48 49 51 51 51 50 50 49 49 49 48 48 48 47 47 47 46 46 46 47 47 48 48 47 47 47 47 47 46 46 46 45 45 46
28 28 27 26 26 27 26 26 25 25 25 24 25 25 27 27 29 32 33 31 29 31 33 35 36 37 37 38 39 41 44 45 45 44 43 40 38 40 45 47 49 49 47 45 45 46 47 47 48 49 49 48 48 49 51 51 51 51 51 51 50 51 50 50 50 49 49 48 47 47 47 47 48 48 48 48 47 47 47 46 45 45 45 45 45 45
27 26 26 26 25 25 26 26 26 26 26 24 24 25 26 28 30 32 34 33 32 31 32 34 35 36 37 38 40 42 44 44 42 40 38 39 40 44 46 48 48 46 44 45 47 47 47 48 49 49 49 48 49 50 50 50 50 50 51 51 51 51 51 51 51 51 50 50 49 49 48 48 48 48 48 48 47 47 46 46 45 45 44 44 44 44
27 27 25 25 25 25 26 27 26 26 25 23 24 26 27 29 31 32 35 35 32 30 31 34 36 38 38 40 41 42 43 43 41 38 38 41 44 45 46 46 45 43 43 46 48 47 46 48 48 48 48 49 51 50 50 50 50 50 51 51 51 51 51 51 51 51 51 51 50 50 49 49 48 48 48 48 47 46 46 45 45 44 44 44 44 43
29 28 25 25 26 25 25 25 25 25 25 24 27 29 29 32 33 34 34 33 29 31 36 38 39 39 39 40 41 41 41 41 41 39 40 43 45 45 45 45 45 45 46 47 47 45 46 46 46 46 46 47 48 48 48 49 49 49 49 49 50 50 50 50 51 51 51 51 50 49 49 49 48 48 48 48 47 46 45 45 44 44 44 44 43 43
29 29 27 25 26 26 26 25 25 26 26 27 29 31 32 34 35 33 32 32 33 39 42 41 40 40 40 40 41 40 39 40 42 43 45 46 45 45 44 45 46 47 48 47 45 45 46 45 45 44 44 44 44 45 45 45 45 45 46 46 47 47 47 48 49 49 50 50 49 48 48 48 48 48 48 47 47 46 45 44 44 44 43 43 43 42
29 29 28 26 27 28 27 27 27 28 28 28 31 33 35 37 34 31 33 37 42 46 44 40 40 41 41 41 41 40 40 41 44 46 47 47 46 45 45 45 46 46 46 45 45 46 45 44 43 43 43 42 42 43 42 41 41 41 42 42 43 43 43 44 45 46 46 46 46 46 46 47 47 47 47 46 45 45 44 43 43 42 42 42 41 41
30 30 29 28 28 29 27 27 29 29 27 29 34 36 36 36 34 34 39 44 47 47 44 41 41 41 41 42 42 42 43 44 45 46 46 46 45 45 45 44 45 45 45 45 45 45 44 43 43 42 41 40 41 41 40 39 39 39 39 39 39 40 40 40 40 40 40 41 42 43 44 45 46 46 45 45 44 43 42 42 41 41 41 40 40 40
29 29 30 30 29 29 29 28 29 29 30 34 38 37 34 35 37 40 44 47 47 45 43 41 40 41 42 43 44 45 45 46 46 46 45 45 45 45 44 44 44 44 44 44 44 43 42 42 42 41 39 38 39 40 39 38 38 37 37 37 37 37 37 36 35 35 35 36 37 38 39 41 42 42 42 42 42 41 40 40 40 40 40 40 40 40
30 29 30 31 30 29 29 29 29 31 35 38 38 36 36 39 42 44 46 47 47 44 41 40 41 42 43 44 46 46 46 46 46 45 45 45 45 44 44 44 44 44 44 44 42 41 40 41 40 38 37 37 38 38 37 36 36 36 35 35 35 34 33 32 32 31 31 31 32 33 34 35 36 37 38 38 39 39 38 39 39 39 39 40 40 40
31 30 30 31 30 30 31 32 33 36 39 39 37 38 41 44 45 45 47 48 47 43 41 41 43 44 44 45 45 45 45 45 46 46 46 46 45 44 43 44 44 44 44 42 40 39 39 39 38 37 37 37 37 36 35 35 35 34 34 33 32 32 31 30 29 28 27 27 27 28 28 29 30 32 33 34 35 36 37 38 39 39 40 40 40 41
32 31 31 32 33 34 34 34 37 40 41 40 40 42 45 46 46 46 47 47 46 43 42 43 45 46 45 44 44 45 45 45 46 46 46 45 44 43 43 44 44 43 42 40 38 37 37 37 36 36 36 36 35 34 33 33 33 32 32 31 30 29 28 28 27 26 25 24 24 24 24 25 26 28 29 31 33 35 36 37 38 39 40 40 40 41
33 32 32 33 35 36 37 37 39 41 42 43 44 45 46 46 46 46 47 47 46 44 44 44 45 45 44 44 45 46 46 46 46 46 46 45 44 43 43 44 44 42 40 38 37 36 35 35 35 35 35 34 33 32 32 31 30 30 29 28 28 27 26 26 25 24 23 23 22 22 22 23 24 25 27 28 30 32 34 35 36 37 38 39 39 40
34 33 34 35 36 38 40 41 43 44 44 44 45 46 47 47 48 47 47 46 46 45 44 44 44 44 44 44 45 46 46 46 45 46 46 44 43 42 43 44 43 40 39 37 36 34 34 34 34 33 32 32 31 30 29 29 28 28 27 27 26 25 25 24 24 23 22 22 21 21 22 22 23 24 25 26 28 29 31 32 33 35 36 37 37 38
34 35 36 37 39 40 41 43 45 46 45 43 45 47 48 48 49 48 47 46 44 43 44 44 44 44 44 45 45 45 45 45 44 45 45 43 42 42 43 43 42 40 38 36 33 32 33 33 32 31 31 30 29 28 28 27 27 26 25 25 25 24 24 23 22 22 21 21 21 21 21 21 22 23 24 25 26 27 28 29 30 31 32 33 34 34
35 36 37 39 41 41 42 44 47 47 46 46 48 50 50 49 48 48 46 45 43 43 44 44 44 44 44 44 44 44 44 44 44 44 43 42 42 43 43 42 40 38 36 33 32 32 32 31 30 30 30 28 27 26 26 26 25 25 24 24 23 23 23 22 22 21 21 20 20 20 21 21 22 22 23 24 24 25 26 27 28 29 29 30 30 31
36 37 38 39 41 42 44 47 48 48 47 49 50 51 51 49 48 47 46 44 44 44 44 44 44 44 44 44 44 43 43 43 43 43 42 42 41 41 41 40 39 36 33 31 31 31 31 30 29 29 28 26 25 25 24 24 24 24 23 23 22 22 22 22 21 21 20 20 20 20 20 21 21 21 22 23 23 24 25 25 26 27 27 28 28 28
Wind_Direction
314 309 305 301 299 296 293 292 292 294 297 299 297 295 294 293 295 298 298 299 299 295 293 290 289 291 290 290 289 286 282 279 278 277 275 273 271 269 267 266 264 263 264 263 260 258 257 255 253 252 251 250 249 248 247 247 247 246 246 246 247 247 246 245 245 246 246 246 246 245 244 245 244 245 246 247 248 248 248 248 249 249 250 250 250 250
313 305 303 298 294 294 296 297 300 301 300 300 296 295 297 293 295 299 299 300 301 296 296 299 296 293 292 292 291 288 283 280 277 275 274 273 272 271 268 266 265 265 266 264 261 259 257 255 253 252 251 250 249 248 247 246 246 247 246 246 247 246 246 245 245 246 246 247 246 246 245 245 246 246 247 249 250 249 249 249 249 250 250 250 250 250
312 303 301 299 300 306 308 306 305 303 301 300 299 298 298 297 300 303 302 303 303 297 298 303 300 296 296 295 292 289 284 281 277 274 275 275 274 273 270 268 267 267 267 264 262 260 258 256 254 252 252 251 251 249 248 247 247 247 247 247 247 246 246 246 246 246 247 247 247 247 247 247 247 248 248 250 250 250 250 250 249 250 250 251 251 250
309 305 303 304 307 308 309 309 306 305 302 299 298 298 297 300 304 301 303 305 302 298 300 304 301 299 302 301 296 291 287 286 284 280 279 278 276 274 272 272 270 268 267 265 264 262 259 257 255 254 253 252 252 251 250 248 247 247 247 246 246 246 246 246 246 246 246 247 247 247 247 247 248 249 249 250 250 250 251 251 250 251 251 251 251 250
302 304 309 313 312 305 303 305 302 300 301 299 294 292 295 299 297 295 301 304 302 303 303 304 303 301 307 309 303 300 298 295 293 289 286 281 278 278 277 276 273 270 269 267 265 263 261 259 257 256 254 253 252 251 250 248 247 247 247 246 246 246 247 247 246 246 246 247 247 247 247 247 248 249 249 249 250 251 251 251 251 251 251 251 251 250
303 306 309 312 312 308 302 300 299 294 299 303 295 288 290 295 296 298 304 306 306 307 303 307 307 302 307 310 303 305 307 302 300 295 290 286 283 281 280 278 275 273 272 270 268 266 264 262 260 258 256 254 253 252 251 250 249 248 248 247 246 246 247 247 247 246 246 246 246 246 246 246 247 248 249 249 250 250 251 251 252 251 251 251 251 250
308 312 313 308 306 307 302 299 298 295 300 302 298 294 294 298 301 302 305 305 303 301 300 305 302 296 303 306 303 308 309 304 303 297 291 290 287 284 283 281 278 277 275 273 271 268 266 263 262 260 257 255 254 254 252 251 250 249 248 247 246 246 247 247 247 247 246 246 246 246 247 247 247 248 249 250 251 251 251 251 252 252 251 251 251 250
308 312 313 310 306 303 299 299 297 295 298 297 297 301 301 301 300 298 301 300 297 299 299 299 295 293 296 300 307 313 310 307 305 300 295 293 291 288 287 285 281 279 277 276 273 270 267 265 263 260 258 256 255 255 254 252 251 250 249 248 247 247 248 248 247 247 247 247 247 247 248 248 248 249 250 251 252 252 251 251 251 252 251 251 251 251
306 303 301 302 304 299 296 297 293 290 294 293 295 300 300 299 297 297 298 296 298 302 300 297 295 292 291 295 308 314 307 307 306 301 297 296 295 293 292 289 285 282 280 277 275 272 270 268 265 262 259 258 257 256 255 253 253 251 250 249 248 248 248 248 248 248 248 248 248 248 248 249 249 250 251 252 252 252 252 251 251 252 252 251 251 251
305 300 297 298 299 295 295 297 293 289 292 294 296 300 302 301 299 300 297 296 299 297 293 292 289 290 291 294 302 309 306 304 303 300 297 296 296 295 294 292 288 286 282 279 276 274 271 269 267 265 263 260 258 257 257 256 255 253 252 250 249 249 249 249 249 249 249 248 249 249 249 249 250 251 251 252 252 252 252 252 251 252 252 252 252 252
303 302 300 299 297 295 297 299 296 293 294 296 298 300 301 301 300 299 297 297 299 292 290 290 283 284 291 293 297 301 303 302 301 302 300 296 295 295 294 292 289 287 285 281 279 276 274 271 269 267 264 262 260 258 257 257 256 254 253 252 251 251 251 250 250 249 249 249 249 249 249 249 250 251 251 251 252 252 252 252 252 252 252 252 252 252
304 302 300 299 298 298 300 300 299 298 296 296 298 299 300 300 301 300 298 298 294 290 293 293 287 282 282 289 297 300 301 302 300 300 298 296 295 294 295 294 290 288 286 283 280 278 276 273 270 266 264 262 261 259 257 257 256 255 254 253 253 253 252 252 251 251 250 250 250 250 250 250 251 251 251 251 251 251 251 252 252 252 253 253 252 252
301 297 299 302 299 296 298 299 299 299 298 295 295 297 299 301 301 299 296 295 290 290 294 294 290 284 280 286 296 298 299 299 298 296 295 294 294 293 292 293 293 290 287 285 282 280 278 275 272 267 264 262 260 259 258 257 257 256 256 254 254 254 253 253 253 252 252 251 251 251 251 251 252 252 252 252 252 252 252 252 252 252 252 252 252 252
303 302 302 301 298 294 292 294 295 295 295 292 291 292 293 296 297 294 293 295 292 292 294 292 290 287 287 292 294 294 296 299 302 300 295 293 292 291 292 294 294 292 288 285 283 281 280 278 274 269 265 263 262 261 260 259 259 258 257 256 255 255 255 254 254 253 253 253 253 252 252 253 253 253 253 253 253 253 253 253 252 252 252 251 252 252
301 302 300 297 298 295 290 292 294 294 293 291 291 290 287 288 288 288 290 291 292 295 294 290 288 287 290 296 295 294 297 302 305 304 300 298 295 294 295 297 296 294 291 288 286 283 282 279 276 271 268 266 265 264 263 262 262 261 260 258 257 256 255 255 254 254 254 254 254 254 254 254 254 254 254 254 254 253 253 253 253 253 252 252 252 253
297 297 298 300 300 295 293 295 296 295 294 292 292 290 287 286 285 286 287 286 290 295 291 286 285 285 289 296 298 298 300 304 305 305 305 303 301 299 298 298 298 297 295 293 290 287 285 282 278 274 271 269 268 267 266 265 265 264 263 261 259 258 256 255 255 255 255 255 255 255 254 254 254 254 255 254 254 254 254 254 253 253 253 253 253 254
298 297 300 303 300 296 295 297 295 294 293 292 291 288 287 288 287 287 289 290 292 289 286 286 286 289 293 296 300 304 305 305 303 303 304 303 303 302 300 299 299 297 296 294 291 289 287 284 281 277 275 273 271 270 268 268 267 266 266 264 262 260 259 257 256 255 255 255 255 255 255 255 255 254 254 254 254 255 255 255 254 254 254 254 254 255
297 297 299 300 298 298 297 297 296 294 291 290 289 289 291 291 290 288 289 292 291 285 286 287 286 291 294 292 298 305 304 302 300 299 300 301 302 300 298 298 298 296 294 293 292 291 288 285 283 280 279 277 275 273 271 270 270 269 268 266 264 263 261 259 257 256 256 255 255 255 255 255 255 255 255 255 255 255 255 255 255 254 254 254 255 256
298 297 299 300 299 299 300 298 296 295 292 290 289 291 292 290 289 289 287 287 287 284 287 288 286 290 292 291 298 303 301 299 299 297 298 298 298 296 295 296 296 295 293 292 291 290 289 288 286 284 283 281 279 277 274 273 273 272 271 269 267 265 263 261 259 258 256 256 255 256 255 255 255 255 255 255 255 255 255 255 255 255 255 255 255 256
299 297 297 299 299 299 300 297 295 297 296 295 293 292 290 287 286 286 284 284 285 285 286 288 287 288 289 292 297 299 298 298 297 297 295 295 295 295 293 293 294 292 291 289 288 288 288 288 288 288 286 284 282 280 278 277 277 276 274 272 270 268 265 263 261 259 257 256 256 256 256 256 256 256 256 256 255 255 255 255 256 256 255 255 256 256
300 295 293 297 299 297 297 295 293 295 295 294 293 292 290 288 287 286 284 283 284 284 285 287 287 286 287 291 294 296 297 296 295 295 293 293 295 295 293 293 293 292 291 290 288 287 286 287 288 289 287 285 284 282 282 281 280 279 277 275 273 270 268 265 263 261 259 257 256 255 255 256 256 256 256 256 256 256 256 256 256 256 256 256 256 257
299 294 292 296 297 296 295 294 292 292 293 292 291 290 289 288 288 288 286 285 284 283 283 285 286 286 287 289 291 293 294 294 295 295 293 294 295 295 295 295 294 293 293 292 291 289 288 287 288 287 286 286 286 286 286 285 283 281 279 277 275 272 269 267 265 262 260 259 257 256 255 255 256 256 256 256 256 256 256 256 256 256 256 257 257 257
299 296 294 294 295 295 296 297 296 294 294 294 292 291 292 290 288 286 286 289 288 286 286 286 286 285 285 286 289 291 292 294 296 296 295 294 294 294 295 295 295 295 293 293 292 291 290 289 288 287 287 287 288 289 289 287 285 282 280 278 276 273 271 269 266 264 262 260 259 257 257 256 256 256 255 256 256 256 256 256 257 256 256 256 257 257
300 299 296 296 297 297 298 300 300 298 296 295 294 294 293 290 289 286 286 288 288 286 288 287 285 284 284 285 287 289 291 293 295 297 296 295 293 293 294 294 294 294 293 293 292 291 290 290 290 289 289 289 289 288 288 286 284 282 280 279 276 274 272 270 268 265 263 262 260 259 258 258 257 256 256 256 256 256 256 256 256 256 256 256 256 256
301 300 300 301 302 301 301 302 300 299 299 297 295 295 295 293 293 290 289 288 285 285 286 285 284 284 284 286 288 290 291 292 294 296 297 295 294 292 292 292 292 292 292 291 291 290 289 289 289 290 289 289 288 287 286 285 285 284 282 280 278 275 273 271 269 267 265 263 261 260 260 259 258 258 257 257 256 256 256 256 256 256 256 256 256 256
300 301 301 300 301 301 302 302 300 300 299 296 295 297 298 298 296 293 291 289 287 288 288 285 285 287 288 291 293 292 292 292 293 295 296 295 294 292 292 292 291 291 290 290 289 288 287 287 288 289 288 287 287 286 286 285 285 284 283 282 280 277 275 272 270 268 266 265 263 261 260 260 259 259 258 258 257 257 257 256 256 256 256 256 255 255
303 303 301 296 295 296 299 300 300 301 300 297 298 299 298 297 296 295 293 290 289 292 290 288 289 290 292 296 296 294 294 293 293 295 296 296 295 293 292 292 292 291 290 289 288 287 287 287 288 289 288 287 287 287 286 285 284 283 282 281 280 278 276 274 272 270 268 266 264 263 262 261 260 260 260 259 259 259 258 257 256 255 255 256 255 255
305 304 302 297 296 297 299 301 301 301 300 299 300 300 299 298 298 298 295 292 293 292 290 292 295 293 293 297 297 296 296 295 294 295 296 296 296 294 292 293 294 294 294 292 291 290 290 290 289 289 288 287 287 287 286 285 284 283 282 280 280 278 276 274 272 271 269 267 265 264 263 262 262 261 261 261 260 260 259 257 256 255 255 255 255 255
307 304 304 302 301 302 303 302 302 302 301 301 301 301 300 300 300 299 296 294 295 294 292 297 298 294 295 298 298 298 298 297 296 295 295 297 297 294 293 294 295 296 296 295 293 293 293 293 291 290 289 288 288 287 286 285 284 283 282 281 279 278 277 275 272 270 269 267 266 265 264 263 263 262 262 261 261 260 259 258 257 256 255 255 255 255
310 307 308 308 305 306 306 304 305 305 303 302 303 302 301 301 301 301 298 297 298 296 296 299 298 295 297 300 300 299 299 298 297 297 297 299 299 297 295 295 295 296 296 294 292 293 293 293 292 291 290 289 289 288 287 286 284 283 283 282 280 279 277 275 273 270 269 268 267 266 265 264 263 262 262 261 261 260 259 259 258 256 255 255 255 255
315 312 313 314 310 309 309 306 307 307 304 303 304 303 303 302 302 303 303 302 301 299 300 300 298 296 298 302 302 300 299 300 299 299 301 302 301 299 297 296 296 296 295 293 292 293 293 291 291 291 290 290 290 290 289 287 285 284 283 282 281 280 278 276 273 271 269 268 268 267 265 264 263 262 262 261 261 260 260 259 258 257 256 255 255 255
318 314 316 318 313 310 310 309 308 309 307 306 305 305 305 304 304 304 305 305 303 302 302 302 300 300 302 304 303 301 301 301 301 302 302 302 301 299 297 296 296 296 296 294 293 293 292 290 290 290 289 289 289 290 288 287 286 285 284 283 282 280 279 276 274 272 270 269 268 267 266 265 264 262 262 261 261 260 259 258 257 257 256 255 254 254
317 316 316 318 313 310 312 313 311 311 309 306 305 305 305 304 304 305 307 306 304 303 303 302 302 304 305 305 304 303 303 303 302 303 304 303 301 299 297 296 296 297 298 295 293 293 291 290 290 289 288 287 288 287 286 286 286 285 284 283 282 281 279 277 275 273 271 270 269 268 267 265 263 262 261 260 260 259 259 258 257 257 256 255 254 254
318 317 316 316 314 312 315 316 315 312 309 307 306 306 307 306 307 309 308 306 305 304 305 304 303 304 305 305 305 305 305 305 305 305 304 303 300 298 298 299 300 299 297 294 293 293 292 292 291 289 288 287 287 285 285 286 285 284 283 282 281 280 279 278 276 275 273 271 269 268 266 265 263 262 261 260 260 259 259 258 257 256 256 255 254 254
320 320 318 317 315 314 317 321 319 314 312 310 308 311 312 307 307 309 308 306 307 307 306 306 306 306 306 306 306 306 306 307 307 307 305 303 299 299 301 302 301 299 296 294 294 294 293 293 292 290 289 288 287 286 286 286 285 283 282 281 281 280 279 277 276 275 273 271 269 268 266 264 263 262 261 261 260 259 258 258 257 256 255 255 254 255
323 322 321 319 317 317 320 322 318 314 314 313 310 313 315 310 309 313 310 308 309 309 308 309 308 307 307 307 307 308 308 308 308 308 307 305 303 305 305 304 301 298 296 295 296 295 295 295 293 292 290 288 288 288 287 286 285 284 282 281 281 280 278 277 276 274 273 271 269 268 266 265 264 263 262 261 259 259 258 257 256 256 255 255 255 255
324 324 323 321 319 319 318 316 313 313 315 314 312 314 315 312 313 314 311 309 311 311 310 309 308 307 307 308 309 310 310 310 309 309 309 309 308 308 306 304 302 299 298 298 298 298 296 295 295 294 291 290 290 289 288 286 285 284 283 282 281 280 279 278 276 274 273 271 270 268 267 265 264 262 261 260 258 257 257 256 256 256 256 256 255 256
326 324 323 320 318 319 318 316 316 315 313 313 312 312 312 311 311 311 310 310 313 314 312 309 308 309 310 310 311 312 312 311 309 310 311 310 309 308 306 305 304 301 300 301 301 300 298 297 296 295 293 292 292 291 289 288 286 285 283 282 281 280 279 277 276 275 273 271 270 269 267 265 263 261 260 259 258 257 256 255 256 256 256 256 255 255
328 325 325 321 319 320 319 316 315 314 312 311 311 311 312 311 310 311 309 309 312 315 313 311 310 310 310 311 311 312 313 312 310 311 312 311 309 308 307 306 305 303 303 303 301 300 300 299 298 296 295 295 294 293 292 290 288 286 285 284 282 281 279 277 276 274 273 271 270 268 266 264 262 260 259 258 257 256 255 255 255 255 255 255 255 255
327 325 325 323 319 318 317 314 312 312 311 310 311 312 313 313 313 314 310 308 312 315 313 311 309 309 310 310 310 311 312 311 310 311 313 311 309 307 306 306 305 305 305 303 301 300 301 300 298 297 297 297 297 297 296 293 291 290 288 287 285 283 281 280 278 276 274 271 269 267 265 263 260 259 258 257 256 255 255 254 254 254 254 254 255 255
325 323 323 321 318 317 316 313 313 313 312 312 314 316 316 315 315 313 309 310 313 313 311 309 308 309 310 310 310 310 310 309 309 310 311 311 309 308 307 306 305 306 305 304 303 302 301 300 299 298 297 297 298 299 298 296 294 293 292 291 289 287 285 283 281 278 275 272 270 267 264 261 259 257 256 255 254 254 254 254 254 253 254 254 254 254
323 322 321 320 319 318 316 314 314 314 313 316 318 318 318 318 315 311 310 311 312 311 309 309 308 308 309 309 308 308 308 309 310 310 310 310 310 309 308 307 306 306 306 305 304 303 302 300 300 299 297 297 299 299 299 297 296 295 295 294 293 291 289 287 285 282 278 275 271 268 264 261 258 256 254 254 253 253 253 253 253 253 253 253 254 254
321 320 319 319 319 319 318 317 317 314 315 320 320 318 318 317 313 311 311 312 311 310 308 308 308 308 308 308 307 308 308 309 310 310 310 310 310 309 308 308 307 307 307 307 305 303 302 301 301 300 298 298 300 300 299 298 297 296 296 295 295 294 292 290 288 286 282 278 274 269 264 260 257 255 253 253 252 252 252 252 252 252 253 253 254 254
319 319 318 318 318 319 317 315 315 313 315 319 319 316 315 315 313 312 312 312 312 310 308 307 308 307 306 307 307 307 308 309 310 310 310 310 310 309 309 309 308 308 308 308 306 304 303 303 302 300 299 300 301 300 300 299 298 297 297 297 296 296 294 292 291 289 286 282 276 270 265 260 256 254 253 252 252 252 252 252 252 252 253 254 255 255
318 317 316 316 316 315 313 311 312 313 315 317 316 314 314 313 313 313 313 311 311 309 307 307 307 306 306 307 307 307 309 309 310 310 310 309 309 310 310 310 310 309 308 308 306 304 304 304 303 301 301 302 302 301 301 301 300 299 298 298 298 297 295 294 292 290 287 283 278 272 266 261 257 255 253 252 252 251 251 252 252 253 254 255 256 256
317 317 317 316 315 314 312 311 312 314 315 315 314 312 312 312 313 313 313 311 310 309 307 305 305 306 307 307 308 308 309 310 309 309 309 309 309 310 311 311 310 309 309 309 307 305 305 305 304 302 302 303 303 302 302 302 301 300 299 299 299 298 296 295 292 290 287 284 279 274 269 264 261 258 255 254 253 253 253 254 254 255 255 256 257 257
317 317 316 315 314 314 314 314 314 315 314 314 313 312 312 313 313 313 312 311 310 308 307 306 306 306 307 307 308 309 309 309 309 308 309 310 310 311 312 312 311 310 310 310 308 307 306 306 305 304 304 304 304 304 303 303 301 301 300 300 300 299 297 295 293 290 287 283 280 275 271 267 263 261 259 258 257 257 257 257 257 257 257 257 258 258
316 316 315 314 314 313 313 313 313 313 311 312 313 314 314 314 313 313 312 311 309 308 308 307 308 307 307 307 308 308 308 308 308 308 309 311 311 311 312 312 311 310 310 310 308 307 308 308 306 305 305 305 305 305 304 303 303 302 302 302 302 300 298 296 293 290 287 284 280 276 273 269 266 264 262 261 260 259 259 259 259 259 259 259 259 259
316 316 315 314 314 313 313 313 314 313 311 311 314 315 315 314 313 313 312 311 310 310 310 309 309 308 307 308 308 307 307 307 308 309 310 311 311 312 312 312 311 310 310 309 308 308 309 309 307 306 306 305 305 305 305 304 304 304 304 304 303 302 300 297 295 292 288 285 281 278 275 271 269 266 265 263 262 262 261 261 260 260 260 260 260 259
318 316 316 316 316 315 315 316 317 316 314 314 315 316 316 315 313 312 311 311 312 312 312 311 310 310 309 309 308 308 307 308 309 310 310 310 312 312 313 313 312 310 309 308 308 310 311 309 307 307 306 306 306 306 306 306 306 306 306 305 304 303 301 299 296 293 290 287 283 280 277 274 271 269 267 266 265 264 264 263 262 262 262 261 261 260
319 317 317 317 316 315 315 315 316 315 314 314 315 316 316 315 313 311 310 310 311 311 311 311 311 311 311 311 310 309 308 308 310 311 310 311 312 313 313 313 312 310 309 310 311 312 312 310 308 307 307 307 307 307 307 307 308 308 307 306 305 303 301 299 297 294 292 289 286 283 279 276 273 271 270 269 267 267 266 265 265 263 263 262 261 260